Location: Celina Division
(33.3022°N, 96.7580°W)
Time: 06:18:33
(UTC+00:00)

H-2A R/B - Pass Details

Date: 05 July 2022
Orbit: 491 x 536 km, 97.3° (Epoch: 01 April)

Event Time Altitude Azimuth Distance (km) Brightness Sun altitude
Rises 10:28:44 0° 26° (NNE) 2,617 7.5 -10.5°
Reaches altitude 10° 10:31:05 10° 39° (NE) 1,735 6.8 -10.1°
Maximum altitude 10:34:14 25° 97° (E) 1,056 4.9 -9.5°
Drops below altitude 10° 10:37:23 10° 154° (SSE) 1,742 5.3 -9.0°
Sets 10:39:45 0° 168° (SSE) 2,631 6.1 -8.6°
